Starlink 31042

operational
NORAD ID: 58739 Int'l Des: 2024-005 Owner: SPXS Country: US Constellation: starlink
LEOCIRCULAR

关于 Starlink 31042

正在加载描述...

实时位置

正在加载3D地球...

即将过境

高度历史

Altitude vs Time

uPlot chart will show altitude changes over time

两行轨道根数

1 58739U 24005M 25351.88189975 .00000501 00000-0 52170-4 0 9999
2 58739 43.0024 306.3056 0000870 280.8529 79.2216 15.02539607108115
Epoch: Dec 17, 2025 • Age: 10 hours

当前状态

高度 562.0 km
速度 7.58 km/s
星下点 -15.28°S, 60.83°W
发射日期 Jan 7, 2024
运行时间 1.9 years
类型 internet

技术详情

分类 Payload
质量 730.00 kg
干质量 700.00 kg
总质量 730.00 kg
长度 0.30 m
直径 4.10 m
跨度 29.00 m
形状 Box + pan
制造商 SPXS
平台类型 Starlink V2M
阶段状态 In Orbit
所有者/国家 SPXS/US

大型星座

Loading constellations...